Location: ??????
(38.1303°N, 24.0039°E)
Time: 04:25:26
(UTC+00:00)

Meteor 2-21 - Pass Details

Date: 20 June 2021
Orbit: 933 x 967 km, 82.5° (Epoch: 31 July)

Event Time Altitude Azimuth Distance (km) Brightness Sun altitude
Exits shadow 00:52:06 26° 180° (S) 1,761 5.4 -19.5°
Maximum altitude 00:55:43 82° 96° (E) 971 4.5 -19.1°
Drops below altitude 10° 01:01:55 10° 9° (N) 2,706 7.7 -18.3°
Sets 01:04:26 0° 9° (N) 3,659 8.6 -18.0°
